Starlink 33867

operational
NORAD ID: 63795 Int'l Des: 2025-091 Owner: SPXS Country: US Constellation: starlink
LEOCIRCULAR

Starlink 33867について

説明を読み込み中...

リアルタイム位置

3D地球を読み込み中...

次回通過

高度履歴

Altitude vs Time

uPlot chart will show altitude changes over time

軌道要素

1 63795U 25091W 26034.97263722 .00023999 00000-0 87828-3 0 9998
2 63795 43.0017 243.1164 0002696 278.5195 81.5351 15.27597237 43747
Epoch: Feb 3, 2026 • Age: 18 hours

現在のステータス

高度 489.9 km
速度 7.62 km/s
衛星直下点 -30.14°S, 58.26°E
打ち上げ日 May 2, 2025
運用期間 0.7 years
タイプ internet

技術仕様

分類 Payload
質量 575.00 kg
乾燥質量 530.00 kg
総質量 575.00 kg
長さ 0.30 m
直径 4.10 m
スパン 29.00 m
形状 Box + pan
製造者 SPXS
バスタイプ Starlink V2MO
フェーズステータス In Orbit
所有者/国 SPXS/US

大規模コンステレーション

Loading constellations...